Regional Weather Roundup
Issued by NWS

Home | Current Version | Previous Version | Graphics & Text | Print | Product List | Glossary On
Versions: 1 2 3 4 5 6 7 8 9 10 11 12 13 14 15 16 17 18 19 20 21 22 23 24 25 26 27 28 29 30 31 32 33 34 35 36 37 38 39 40 41 42 43 44 45 46 47 48 49 50
000
ASUS43 KOAX 012310
RWRNE

WEATHER ROUNDUP FOR NEBRASKA
NATIONAL WEATHER SERVICE OMAHA NE
600 PM CDT WED OCT 01 2014

NOTES: SATELLITE DATA IS BEING USED TO AUGMENT CLOUD COVER ABOVE
       12000 FEET.
       "FAIR" INDICATES FEW OR NO CLOUDS BELOW 12,000 FEET WITH NO
       SIGNIFICANT WEATHER AND/OR OBSTRUCTIONS TO VISIBILITY.

  * THESE STATIONS DO NOT REPORT WEATHER SUCH AS RAIN...SNOW OR FOG.

NEZ001>004-019>022-054>056-020000-
NEBRASKA PANHANDLE

CITY           SKY/WX    TMP DP  RH WIND       PRES   REMARKS
SCOTTSBLUFF    CLOUDY    56  45  66 NW18G25   29.91R
ALLIANCE       LGT RAIN  57  46  66 N21       29.86R
CHADRON        CLOUDY    57  44  62 NW13G22   29.90R
KIMBALL        LGT RAIN  49  43  78 NW18G28   29.92R
SIDNEY         MOSUNNY   62  41  46 N13       29.85S
$$

NEZ057>060-069>072-079>082-020000-
SOUTHWEST NEBRASKA

CITY           SKY/WX    TMP DP  RH WIND       PRES   REMARKS
NORTH PLATTE   MOSUNNY   72  47  40 SE5       29.77R
IMPERIAL       SUNNY     73  40  30 E3        29.78S
LEXINGTON      SUNNY     73  53  49 CALM      29.76R
MCCOOK         SUNNY     76  43  30 S5        29.75S
OGALLALA       MOSUNNY   73  44  35 CALM      29.78F
$$

NEZ005>010-023>029-035>040-094-020000-
NORTH CENTRAL NEBRASKA

CITY           SKY/WX    TMP DP  RH WIND       PRES   REMARKS
VALENTINE      MOSUNNY   67  46  47 N14       29.82R
AINSWORTH      MOSUNNY   68  46  45 N9        29.81S
BROKEN BOW     PTSUNNY   73  48  41 NE9       29.77R
O`NEILL        MOSUNNY   72  53  50 N7        29.79R
ORD            MOSUNNY   74  50  42 N7        29.76R
THEDFORD       MOSUNNY   69  48  48 NE8       29.81R
$$

NEZ041-046>049-061>064-073>077-083>087-020000-
SOUTH CENTRAL NEBRASKA

CITY           SKY/WX    TMP DP  RH WIND       PRES   REMARKS
GRAND ISLAND   MOSUNNY   77  54  44 NE7       29.75R
AURORA         PTSUNNY   76  52  41 NE3       29.74S
HASTINGS       MOSUNNY   76  52  43 E7        29.74R
HEBRON         MOSUNNY   77  56  48 NE5       29.73R
HOLDREGE       MOSUNNY   75  50  42 CALM      29.74S
KEARNEY *      SUNNY     75  55  50 N9        29.76R
YORK           PTSUNNY   75  59  57 SE3       29.74S
$$

NEZ011>018-030>034-042>045-020000-
NORTHEAST NEBRASKA

CITY           SKY/WX    TMP DP  RH WIND       PRES   REMARKS
NORFOLK        MOSUNNY   74  55  51 NW10      29.74S
ALBION         PTSUNNY   73  53  48 NE5       29.76S
BLAIR          MOSUNNY   74  64  70 CALM      29.74R
COLUMBUS *     MOSUNNY   79  54  41 CALM      29.74F
FREMONT        PTSUNNY   76  57  51 E3        29.74R
TEKAMAH        PTSUNNY   77  60  55 S3        29.73R
WAYNE          MOSUNNY   74  55  51 N7        29.75R
$$

NEZ050>053-065>068-078-088>093-020000-
SOUTHEAST NEBRASKA

CITY           SKY/WX    TMP DP  RH WIND       PRES   REMARKS
LINCOLN        MOSUNNY   75  61  61 NE6       29.73S
OMAHA EPPLEY   PTSUNNY   74  62  66 E5        29.73S
BEATRICE       MOSUNNY   77  61  58 NE6       29.72R
FALLS CITY     PTSUNNY   79  66  64 E9        29.71R
NEBRASKA CITY  SUNNY     75  60  58 NE5       29.72S
PLATTSMOUTH      N/A     74  61  63 CALM      29.74R
$$

NEZ044-045-051>053-067-020000-
OMAHA AREA

CITY           SKY/WX    TMP DP  RH WIND       PRES   REMARKS
OMAHA EPPLEY   PTSUNNY   74  62  66 E5        29.73S
BLAIR          MOSUNNY   74  64  70 CALM      29.74R
FREMONT        PTSUNNY   76  57  51 E3        29.74R
MILLARD        MOSUNNY   74  64  69 SE5       29.74R
OFFUTT AFB     MOSUNNY   75  66  73 NE1       29.73R
PLATTSMOUTH      N/A     74  61  63 CALM      29.74R
WAHOO          MOCLDY    74  62  66 SE6       29.74R
$$


USA.gov is the U.S. government's official web portal to all federal, state and local government web resources and services.